Location: Marcé
(47.5801°N, 0.3280°W)
Time: 09:40:48
(UTC+01:00)

BlueWalker 3 - Pass Details

Date: 08 December 2022
Orbit: 499 x 517 km, 53.2° (Epoch: 29 January)

Event Time Altitude Azimuth Distance (km) Brightness Sun altitude
Rises 20:00:04 0° 295° (WNW) 2,626 6.5 -27.7°
Reaches altitude 10° 20:02:23 10° 287° (WNW) 1,733 5.5 -28.1°
Enters shadow 20:05:02 30° 252° (WSW) 924 3.8 -28.5°
